Location: Le Rocchette
(44.3500°N, 7.8333°E)
Time: 21:45:53
(UTC+00:00)

SL-16 R/B - Pass Details

Date: 17 November 2019
Orbit: 842 x 846 km, 71.0° (Epoch: 14 December)

Event Time Altitude Azimuth Distance (km) Brightness Sun altitude
Exits shadow 03:10:33 17° 14° (NNE) 2,047 4.4 -34.9°
Maximum altitude 03:13:02 22° 48° (NE) 1,790 4.3 -34.5°
Drops below altitude 10° 03:17:19 10° 97° (E) 2,468 5.4 -33.7°
Sets 03:20:21 0° 113° (ESE) 3,399 6.2 -33.2°
